Regional Weather Roundup
Issued by NWS

Home | Current Version | Previous Version | Text Only | Print | Product List | Glossary Off
Versions: 1 2 3 4 5 6 7 8 9 10 11 12 13 14 15 16 17 18 19 20 21 22 23 24 25 26 27 28

000
ASUS45 KCYS 170110
RWRWY

WYOMING REGIONAL WEATHER ROUNDUP
NATIONAL WEATHER SERVICE CHEYENNE WY
700 PM MDT MON OCT 16 2017

NOTE:  "FAIR" INDICATES FEW OR NO CLOUDS BELOW 12,000 FEET
WITH NO SIGNIFICANT WEATHER AND/OR OBSTRUCTIONS TO VISIBILITY.

WYZ001-170200-
YELLOWSTONE NATIONAL PARK

CITY           SKY/WX    TMP DP  RH WIND       PRES   REMARKS
LK YELLOWSTONE   N/A     36  18  48 CALM      30.40S
W YELLOWSTONE  NOT AVBL

$$
WYZ002>013-054>058-071-098>099-170200-
NORTHERN WYOMING

CITY           SKY/WX    TMP DP  RH WIND       PRES   REMARKS
JACKSON        FAIR      48  20  32 SW12      30.34F
CODY           FAIR      62  17  17 NW10G16   30.19S
GREYBULL       FAIR      60  24  25 CALM      30.14S
WORLAND        FAIR      46  30  53 E6        30.15S
SHERIDAN       FAIR      49  28  44 S7        30.12R
BUFFALO        FAIR      50  23  34 SW7       30.18S
GILLETTE       FAIR      47  26  44 W9        30.14R
HULETT         FAIR      55  27  33 SW6       30.13S
NEWCASTLE      FAIR      54  25  32 N8        30.15S

$$
WYZ014>020-022>026-101>103-170200-
CENTRAL WYOMING

CITY           SKY/WX    TMP DP  RH WIND       PRES   REMARKS
BIG PINEY      FAIR      44  14  29 N12       30.36R
PINEDALE       FAIR      43  16  33 NW8       30.37R
DUBOIS         FAIR      46  12  25 N9        30.32R
LANDER         FAIR      56  28  34 W10       30.21S
RIVERTON       FAIR      55  26  32 CALM      30.22S
CASPER         FAIR      51  17  26 W7        30.21R
DOUGLAS        FAIR      52  18  26 VRB3      30.19R

$$
WYZ021-027>030-104>119-170200-
SOUTHERN WYOMING

CITY           SKY/WX    TMP DP  RH WIND       PRES   REMARKS
EVANSTON       FAIR      53   0  11 W16       30.40S
KEMMERER       FAIR      48  10  21 NW8       30.40S
FORT BRIDGER   FAIR      51   3  14 W8        30.42R
ROCK SPRINGS   FAIR      54   2  12 W13       30.35S
DIXON          FAIR      54   7  15 SW5       30.38R
RAWLINS        FAIR      54   4  13 W8        30.33R
SARATOGA       FAIR      45  12  26 W8        30.35F
LARAMIE        FAIR      45   8  22 W15       30.33S
CHEYENNE       FAIR      60   6  11 NW8       30.27R
TORRINGTON     FAIR      61  15  16 N3        30.16R
PINE BLUFFS    FAIR      52  19  28 NW12      30.22R

$$




USA.gov is the U.S. government's official web portal to all federal, state and local government web resources and services.